Overview Statistics Trail Chart Weather Telemetry Raw packets
 

This is the latest recevied weather packets stored in our database for station/object WD7OO. If no packets are shown the sender has not sent any weather packets the latest 10 day(s).

<< 21 22 23 24 25 26 27 >>
Time Temp. Humidity Pressure Rain* Wind** Luminosity Snow
1788482341 26.11° C 79% 1015.5 hPa 0 mm - 0 W/m² -
1788482037 26.11° C 79% 1015.4 hPa 0 mm - 0 W/m² -
1788481731 26.11° C 79% 1015.5 hPa 0 mm - 0 W/m² -
1788481428 26.11° C 81% 1015.2 hPa 0 mm - 0 W/m² -
1788481130 26.11° C 79% 1015.2 hPa 0 mm - 0 W/m² -
1788480823 26.67° C 79% 1015.3 hPa 0 mm - 2 W/m² -
1788480517 26.67° C 78% 1015.2 hPa 0 mm - 3 W/m² -
1788480217 26.67° C 79% 1014.9 hPa 0 mm - 6 W/m² -
1788479911 26.67° C 77% 1014.9 hPa 0 mm - 10 W/m² -
1788479608 26.67° C 78% 1015.1 hPa 0 mm - 13 W/m² -
1788479306 26.67° C 78% 1014.9 hPa 0 mm - 18 W/m² -
1788479003 26.67° C 77% 1014.6 hPa 0 mm - 21 W/m² -
1788478699 27.22° C 78% 1014.6 hPa 0 mm - 24 W/m² -
1788478395 27.22° C 78% 1014.6 hPa 0 mm - 26 W/m² -
1788478094 27.22° C 76% 1014.5 hPa 0 mm - 30 W/m² -
1788477790 27.78° C 76% 1014.4 hPa 0 mm - 35 W/m² -
1788477489 27.78° C 76% 1014.6 hPa 0 mm - 38 W/m² -
1788477184 27.78° C 75% 1014.6 hPa 0 mm - 39 W/m² -
1788476879 27.78° C 75% 1014.4 hPa 0 mm - 40 W/m² -
1788476600 28.33° C 75% 1014.3 hPa 0 mm - 42 W/m² -
1788476270 28.33° C 74% 1014.4 hPa 0 mm - 46 W/m² -
1788475967 28.33° C 73% 1014.3 hPa 0 mm - 47 W/m² -
1788475663 28.33° C 72% 1014.2 hPa 0 mm - 49 W/m² -
1788475359 28.33° C 72% 1014.2 hPa 0 mm - 52 W/m² -
1788475054 28.89° C 73% 1014.4 hPa 0 mm - 56 W/m² -

* Rain latest hour (hover to see other rain measurements)
** Current wind speed in m/s (hover to see current wind gust speed)